Regional Weather Roundup
Issued by NWS

Home | Current Version | Previous Version | Graphics & Text | Print | Product List | Glossary On
Versions: 1 2 3 4 5 6 7 8 9 10 11 12 13 14 15 16 17 18 19 20 21 22 23 24 25 26 27 28 29 30 31 32 33 34 35 36 37 38 39 40 41 42 43 44 45 46 47 48 49 50
000
ASUS45 KTFX 281004
RWRMT
MONTANA REGIONAL WEATHER ROUNDUP
NATIONAL WEATHER SERVICE GREAT FALLS MT
400 AM MDT FRI AUG 28 2015

NOTE: "FAIR" INDICATES FEW OR NO CLOUDS BELOW 12000 FEET WITH NO
SIGNIFICANT WEATHER AND/OR OBSTRUCTIONS TO VISIBILITY.

MTZ001>007-043-281100-
WEST OF THE DIVIDE

CITY           SKY/WX    TMP DP  RH WIND       PRES   REMARKS
KALISPELL      CLOUDY    52  42  69 CALM      30.02R HAZE
MISSOULA       CLOUDY    59  41  51 E8        30.09S HAZE
BUTTE          CLOUDY    47  43  86 SE3       30.25R
MULLAN PASS      N/A     60  35  39 S6        30.20F
DEER LODGE       N/A     54  39  58 CALM      30.21S
EUREKA           N/A     61  39  44 SE7       29.99R
HAMILTON         N/A     64  39  39 S16       30.10F
LIBBY            N/A     54  41  62 CALM      30.01S
$$

MTZ008-052>055-281100-
SOUTHWEST MONTANA

CITY           SKY/WX    TMP DP  RH WIND       PRES   REMARKS
BOZEMAN          N/A     50  46  86 NW5       30.17S
DILLON           N/A     49  42  77 SW7       30.21S
W YELLOWSTONE  PTCLDY    37  36  93 CALM      30.33S
$$

MTZ009-010-012-014-046-048-049-054-281100-
EAST SLOPES AND CENTRAL MONTANA

CITY           SKY/WX    TMP DP  RH WIND       PRES   REMARKS
CUT BANK       CLOUDY    67  38  34 W16       30.01S HAZE
GREAT FALLS    CLOUDY    63  38  39 SW13      30.04S HAZE
MALMSTROM AFB  CLOUDY    67  39  35 SW12      30.04S
HELENA         CLOUDY    63  43  48 CALM      30.12R SMOKE
$$

MTZ011-013-016-021-045-047-050-051-281100-
NORTH CENTRAL MONTANA

CITY           SKY/WX    TMP DP  RH WIND       PRES   REMARKS
HAVRE          CLOUDY    60  44  55 W8        29.95R
LEWISTOWN      CLOUDY    59  42  53 W6        30.08R
N BAR RANCH    PTSUNNY   66  39  37 NW10      30.09R
CHINOOK          N/A     61  48  63 CALM      29.93R
$$

MTZ017>020-022>027-061-062-281100-
NORTHEAST MONTANA

CITY           SKY/WX    TMP DP  RH WIND       PRES   REMARKS
GLASGOW        CLEAR     60  51  72 CALM      29.88R
JORDAN           N/A     54  44  69 W6        29.93R
SIDNEY         CLEAR     61  55  82 S5        29.87R
WOLF POINT     CLEAR     58  54  86 S5        29.87S
PLENTYWOOD       N/A     64  54  68 CALM      29.86S
POPLAR           N/A     61  54  77 CALM      29.87S
$$

MTZ028>42-056>058-281100-
SOUTHCENTRAL AND SOUTHEAST MONTANA

CITY           SKY/WX    TMP DP  RH WIND       PRES   REMARKS
BAKER          PTCLDY    64  52  64 W8        29.96R
BILLINGS       CLEAR     67  47  48 SW17      30.05S
LIVINGSTON     PTCLDY    59  41  51 NW13      30.15R
MILES CITY     CLEAR     63  46  54 W5        29.95R
FORSYTH          N/A     68  46  45 W6        29.95S
$$

REGIONAL REPORTS...DAKOTAS

CITY           SKY/WX    TMP DP  RH WIND       PRES   REMARKS
WILLISTON      CLEAR     65  62  90 S3        29.86S
MINOT          CLEAR     68  58  70 SW15      29.82S
DICKINSON      PTCLDY    60  54  80 S7        29.90F
BISMARCK       PTCLDY    61  59  93 CALM      29.91S
GRAND FORKS    PTCLDY    63  62  97 S6        29.85R FOG
FARGO          PTCLDY    66  63  90 S6        29.90S
BUFFALO SD       N/A     60  55  83 NW5       29.91S
RAPID CITY     CLEAR     57  54  89 NW7       29.99R
$$

REGIONAL REPORTS...WYOMING/IDAHO/WASHINGTON

CITY           SKY/WX    TMP DP  RH WIND       PRES   REMARKS
GILLETTE       MOCLDY    64  44  48 W10       30.08R
SHERIDAN       PTCLDY    57  45  64 CALM      30.07R
BUFFALO WY     MOCLDY    66  38  35 W8        30.14S
CODY           CLEAR     55  45  67 S7        30.18S
YELLOWSTONE LA   N/A     37  36  96 CALM      30.42S
IDAHO FALLS    PTCLDY    50  44  80 W3        30.19R
SALMON         CLOUDY    54  46  76 CALM      30.17R
BOISE            N/A     74  36  25 E7        30.01F
SPOKANE        CLOUDY    66  39  37 SE8       29.97F
$$

REGIONAL REPORTS...ALBERTA

CITY           SKY/WX    TMP DP  RH WIND       PRES   REMARKS
$$

REGIONAL REPORTS...SASKATCHEWAN

CITY           SKY/WX    TMP DP  RH WIND       PRES   REMARKS
$$



USA.gov is the U.S. government's official web portal to all federal, state and local government web resources and services.